Saltillo, Mexico

4:26 AM CDT on April 25, 2017 (GMT -0500)
Plan De Guadalupe International

Weather History for MMIO - June, 2013

Change the Weather History Date:

Wednesday, June 26, 2013

  Actual Average Record
Temperature  
Mean Temperature 74 °F -  
Max Temperature 87 °F 82 °F 91 °F (2008)
Min Temperature 61 °F 64 °F 52 °F (2014)
Cooling Degree Days 9    
Growing Degree Days 24 (Base 50)    
Moisture  
Dew Point 59 °F    
Average Humidity 48    
Maximum Humidity 73    
Minimum Humidity 27    
Precipitation  
Precipitation 0.00 in - - ()
Sea Level Pressure  
Sea Level Pressure 30.01 in    
Wind  
Wind Speed 9 mph ()    
Max Wind Speed 23 mph    
Max Gust Speed -    
Visibility 9.0 miles    
Events      
Averages and records for this station are not official NWS values.
T = Trace of Precipitation, MM = Missing Value Source: Averaged Metar Reports

Daily Weather History Graph

Daily Weather History Graph

Search for Another Location

Airport or City:

Trip Planner

Search our weather history database for the weather conditions in past years. The results will help you decide how hot, cold, wet, or windy it might be!

Date:

Astronomy

Jun. 26, 2013 Rise Set
Actual Time 6:55 AM CDT 8:38 PM CDT
Civil Twilight 6:29 AM CDT 9:04 PM CDT
Nautical Twilight 5:58 AM CDT 9:35 PM CDT
Astronomical Twilight 5:25 AM CDT 10:08 PM CDT
Moon 11:29 PM CDT (6/26) 10:26 AM CDT (6/26)
Length of Visible Light 14h 34m
Length of Day
13h 42m
Waning Gibbous, 85% of the Moon is Illuminated
Jun 26
Waning Gibbous
Jun 29
Last Quarter
Jul 8
New
Jul 15
First Quarter
Jul 22
Full

Hourly Weather History & Observations

Time (CDT) Temp. Heat Index Dew Point Humidity Pressure Visibility Wind Dir Wind Speed Gust Speed Precip Events Conditions
12:40 AM 73.4 °F - 50.0 °F 44% 30.10 in 10.0 mi Calm Calm - N/A   Clear
12:50 AM 64 °F - 57 °F 73% 29.78 in 3 mi SSW 4.5 mph - -   Haze
3:47 AM 66 °F - 55 °F 58% 29.82 in 3 mi SW 2.2 mph - -   Haze
6:00 AM 69.8 °F - 53.6 °F 56% 30.10 in 10.0 mi SSE 13.8 mph - N/A   Clear
6:40 AM 73.4 °F - 57.2 °F 57% 30.10 in 10.0 mi SSE 13.8 mph - N/A   Clear
6:50 AM 64 °F - 55 °F 64% 29.86 in 4 mi SSE 11.2 mph - -   Haze
7:40 AM 75.2 °F - 59.0 °F 57% 30.10 in 10.0 mi South 13.8 mph - N/A   Clear
8:40 AM 78.8 °F - 57.2 °F 47% 30.12 in 10.0 mi SSE 13.8 mph - N/A   Clear
9:40 AM 82.4 °F 83.4 °F 62.6 °F 51% 30.12 in 10.0 mi SSE 16.1 mph - N/A   Scattered Clouds
9:46 AM 73 °F - 57 °F 46% 29.91 in 11 mi SW 8.9 mph - -   Haze
10:40 AM 84.2 °F 84.4 °F 60.8 °F 45% 30.12 in 10.0 mi SSE 13.8 mph - N/A   Scattered Clouds
11:40 AM 87.8 °F 90.4 °F 66.2 °F 49% 30.12 in 10.0 mi ESE 13.8 mph - N/A   Mostly Cloudy
12:40 PM 91.4 °F 94.0 °F 66.2 °F 43% 30.12 in 10.0 mi Calm Calm - N/A   Mostly Cloudy
12:48 PM 81 °F - 55 °F 31% 29.86 in 11 mi SW 4.5 mph - -   Partly Cloudy
1:40 PM 91.4 °F 94.0 °F 66.2 °F 43% 30.11 in 10.0 mi NE 13.8 mph - N/A   Mostly Cloudy
2:40 PM 89.6 °F 92.2 °F 66.2 °F 46% 30.10 in 10.0 mi NNE 17.3 mph - N/A   Mostly Cloudy
3:40 PM 89.6 °F 92.2 °F 66.2 °F 46% 30.10 in 10.0 mi NE 20.7 mph - N/A   Mostly Cloudy
3:47 PM 83 °F - 57 °F 31% 29.77 in 10 mi SSE 13.4 mph - -   Haze
4:40 PM 87.8 °F 88.5 °F 62.6 °F 43% 30.09 in 10.0 mi NE 20.7 mph - N/A   Mostly Cloudy
5:40 PM 86.0 °F 86.6 °F 62.6 °F 45% 30.08 in 10.0 mi NE 17.3 mph - N/A   Mostly Cloudy
6:40 PM 86.0 °F 86.6 °F 62.6 °F 45% 30.06 in 10.0 mi NE 23.0 mph - N/A   Mostly Cloudy
6:47 PM 82 °F - 54 °F 27% 29.69 in 7 mi South 11.2 mph - -   Haze
7:40 PM 82.4 °F 82.5 °F 59.0 °F 45% 30.05 in 10.0 mi NE 23.0 mph - N/A   Mostly Cloudy
8:40 PM 80.6 °F 81.1 °F 59.0 °F 48% 30.07 in 10.0 mi NNE 17.3 mph - N/A   Mostly Cloudy
9:40 PM 77.0 °F - 57.2 °F 50% 30.09 in 10.0 mi NE 17.3 mph - N/A   Scattered Clouds
9:48 PM 72 °F - 55 °F 46% 29.70 in 3 mi SSW 4.5 mph - -   Haze
10:40 PM 75.2 °F - 53.6 °F 47% 30.11 in 10.0 mi NE 9.2 mph - N/A   Scattered Clouds
11:40 PM 75.2 °F - 53.6 °F 47% 30.12 in 10.0 mi NE 5.8 mph - N/A   Clear